TimeGMT,TemperatureF,Dew PointF,Humidity,Sea Level PressureIn,VisibilityMPH,Wind Direction,Wind SpeedMPH,Gust SpeedMPH,PrecipitationIn,Events,Conditions,WindDirDegrees,DateUTC
12:50 AM,48.2,41.0,76,29.65,5.6,West,26.5,41.4,N/A,Rain,Light Rain Showers,260,2013-02-04 00:50:00
1:50 AM,46.4,39.2,76,29.65,5.6,WSW,20.7,-,N/A,,Scattered Clouds,250,2013-02-04 01:50:00
2:50 AM,44.6,37.4,76,29.65,3.1,West,26.5,-,N/A,,Scattered Clouds,270,2013-02-04 02:50:00
3:50 AM,46.4,37.4,71,29.62,3.1,West,28.8,-,N/A,,Scattered Clouds,270,2013-02-04 03:50:00
4:50 AM,42.8,37.4,81,29.65,5.0,West,32.2,49.5,N/A,Rain,Light Rain Showers,270,2013-02-04 04:50:00
5:50 AM,42.8,35.6,76,29.62,5.6,West,29.9,-,N/A,Rain,Light Rain Showers,270,2013-02-04 05:50:00
6:20 AM,42.8,35.6,76,29.62,5.6,West,34.5,-,N/A,Rain,Light Rain Showers,270,2013-02-04 06:20:00
6:50 AM,42.8,35.6,76,29.65,5.6,West,35.7,-,N/A,Rain,Light Rain Showers,270,2013-02-04 06:50:00
7:20 AM,42.8,35.6,76,29.65,5.6,West,32.2,44.9,N/A,,Scattered Clouds,270,2013-02-04 07:20:00
7:50 AM,42.8,35.6,76,29.62,5.6,West,32.2,50.6,N/A,Rain,Light Rain Showers,270,2013-02-04 07:50:00
8:20 AM,41.0,33.8,76,29.62,5.0,West,29.9,-,N/A,,Scattered Clouds,260,2013-02-04 08:20:00
8:50 AM,39.2,35.6,87,29.65,5.6,West,35.7,55.2,N/A,,Scattered Clouds,270,2013-02-04 08:50:00
9:20 AM,41.0,35.6,81,29.65,4.3,West,40.3,51.8,N/A,Rain,Light Rain Showers,270,2013-02-04 09:20:00
10:50 AM,42.8,33.8,70,29.62,4.3,West,34.5,47.2,N/A,,Scattered Clouds,270,2013-02-04 10:50:00
11:20 AM,41.0,33.8,76,29.62,4.3,West,33.4,48.3,N/A,Rain,Light Rain Showers,270,2013-02-04 11:20:00
11:50 AM,42.8,33.8,70,29.59,5.6,West,32.2,44.9,N/A,Rain,Light Rain Showers,270,2013-02-04 11:50:00
12:20 PM,39.2,35.6,87,29.62,1.9,West,36.8,49.5,N/A,Rain,Rain Showers,270,2013-02-04 12:20:00
12:50 PM,41.0,35.6,81,29.59,3.1,West,33.4,46.0,N/A,Rain,Rain Showers,260,2013-02-04 12:50:00
1:20 PM,39.2,37.4,93,29.59,3.1,West,26.5,39.1,N/A,Rain,Light Rain Showers,270,2013-02-04 13:20:00
1:50 PM,41.0,35.6,81,29.56,5.0,West,31.1,-,N/A,,Scattered Clouds,260,2013-02-04 13:50:00
2:20 PM,39.2,35.6,87,29.56,3.7,West,33.4,46.0,N/A,Rain,Light Rain Showers,260,2013-02-04 14:20:00
2:50 PM,39.2,37.4,93,29.56,5.6,West,32.2,-,N/A,Rain,Light Rain Showers,270,2013-02-04 14:50:00
3:20 PM,41.0,35.6,81,29.56,6.2,West,34.5,46.0,N/A,Rain,Light Rain Showers,270,2013-02-04 15:20:00
3:50 PM,41.0,32.0,70,29.53,6.2,West,34.5,46.0,N/A,,Scattered Clouds,270,2013-02-04 15:50:00
4:20 PM,41.0,33.8,76,29.53,4.3,West,27.6,43.7,N/A,Rain,Light Rain Showers,260,2013-02-04 16:20:00
4:50 PM,39.2,35.6,87,29.53,4.3,West,36.8,49.5,N/A,Rain,Light Rain Showers,260,2013-02-04 16:50:00
5:20 PM,39.2,35.6,87,29.50,4.3,West,23.0,35.7,N/A,Rain,Light Rain Showers,260,2013-02-04 17:20:00
5:50 PM,37.4,35.6,93,29.50,3.1,West,26.5,-,N/A,Rain-Snow,Rain Showers,270,2013-02-04 17:50:00
6:20 PM,39.2,33.8,81,29.50,3.1,West,26.5,-,N/A,Rain,Rain Showers,260,2013-02-04 18:20:00
6:50 PM,39.2,32.0,75,29.47,3.1,West,35.7,-,N/A,Rain,Light Rain Showers,270,2013-02-04 18:50:00
7:20 PM,39.2,32.0,75,29.47,3.1,West,31.1,44.9,N/A,Rain,Light Rain Showers,270,2013-02-04 19:20:00
7:50 PM,35.6,33.8,93,29.47,3.1,West,27.6,-,N/A,Rain-Snow,Rain Showers,260,2013-02-04 19:50:00
8:20 PM,37.4,33.8,87,29.44,5.6,West,16.1,-,N/A,Rain-Snow,Rain Showers,260,2013-02-04 20:20:00
8:50 PM,39.2,32.0,75,29.44,5.6,West,23.0,34.5,N/A,Rain,Rain Showers,260,2013-02-04 20:50:00
9:20 PM,39.2,32.0,75,29.44,5.6,West,23.0,-,N/A,Rain,Rain Showers,260,2013-02-04 21:20:00
9:50 PM,39.2,32.0,75,29.44,5.6,West,31.1,-,N/A,Rain,Rain Showers,270,2013-02-04 21:50:00
10:20 PM,37.4,32.0,81,29.42,4.3,West,20.7,-,N/A,Rain-Snow,Rain Showers,260,2013-02-04 22:20:00
10:50 PM,35.6,32.0,87,29.42,4.3,West,23.0,-,N/A,Rain-Snow,Rain Showers,270,2013-02-04 22:50:00
11:20 PM,37.4,32.0,81,29.42,4.3,West,17.3,-,N/A,Rain-Snow,Rain Showers,260,2013-02-04 23:20:00
11:50 PM,37.4,33.8,87,29.39,4.3,West,23.0,34.5,N/A,Rain,Rain Showers,270,2013-02-04 23:50:00